Regional Weather Roundup
Issued by NWS Albany, NY

Home | Current Version | Previous Version | Graphics & Text | Print | Product List | Glossary Off
Versions: 1 2 3 4 5 6 7 8 9 10 11 12 13 14 15 16 17 18 19 20 21 22 23 24 25 26 27 28 29 30 31 32 33 34 35 36 37 38 39 40 41 42 43 44 45 46 47 48 49 50

000
ASUS41 KALY 292310
RWRALY

NEW YORK STATE HOURLY WEATHER ROUNDUP
NATIONAL WEATHER SERVICE ALBANY NY
700 PM EDT WED JUL 29 2015

NOTE: "FAIR" INDICATES FEW OR NO CLOUDS BELOW 12,000 FEET WITH NO
SIGNIFICANT WEATHER AND/OR NO OBSTRUCTIONS TO VISIBILITY.

NYZ032-033-038>043-046>054-057>066-NYZ062>081-300000-
EAST


CITY           SKY/WX    TMP DP  RH WIND       PRES   REMARKS
ALBANY         MOSUNNY   90  64  42 S10       29.88F HX  91
GLENS FALLS    SUNNY     88  63  43 SW6       29.87F
POUGHKEEPSIE   SUNNY     92  62  36 W5        29.89S HX  92
NEWBURGH       MOSUNNY   90  64  43 W9        29.93S HX  91
MONTGOMERY     SUNNY     89  68  49 W5        29.91F HX  93
WHITE PLAINS   MOSUNNY   85  67  54 S9        29.92S
ISLIP          MOSUNNY   84  70  62 SW12      29.91F
NEW YORK CITY  PTSUNNY   90  67  46 S12       29.90S HX  93
CENTRAL PARK   SUNNY     88  68  51 MISG      29.93F HX  91
$$

NYZ005>009-017-018-044>046-055-056-300000-
CENTRAL


CITY           SKY/WX    TMP DP  RH WIND       PRES   REMARKS
FULTON         SUNNY     87  68  52 S3        29.88F HX  90
SYRACUSE       MOSUNNY   88  64  44 SW7       29.87F
ROME           MOSUNNY   87  65  47 W6        29.90S
ELMIRA         PTSUNNY   84  66  54 SW5       29.91F
BINGHAMTON     PTSUNNY   82  65  56 SW7       29.97S
MONTICELLO     SUNNY     84  66  54 SW5       29.99S
$$

NYZ026>034-041>043-300000-
NORTH


CITY           SKY/WX    TMP DP  RH WIND       PRES   REMARKS
WATERTOWN      SUNNY     85  66  53 W5        29.87F
FORT DRUM      NOT AVBL
MASSENA        SUNNY     86  68  54 SW7       29.85S
SARANAC LAKE   SUNNY     83  63  50 SW3       29.92F
PLATTSBURGH    MOSUNNY   73  70  90 SW5       29.85F
$$

NYZ001>004-010>016-019>021-300000-
WEST


CITY           SKY/WX    TMP DP  RH WIND       PRES   REMARKS
NIAGARA FALLS  PTSUNNY   87  60  40 S8        29.86S
BUFFALO        PTSUNNY   87  61  41 SW8       29.87F
DUNKIRK        SUNNY     83  69  62 SW5       29.89F
JAMESTOWN      PTSUNNY   82  64  54 W8        29.96F
WELLSVILLE     PTSUNNY   82  65  56 SW5       30.01S
ROCHESTER      PTSUNNY   88  65  46 SW8       29.87F HX  90
PENN YAN       MOSUNNY   86  64  47 S7        29.92F
$$

             KEY
       WCI = WIND CHILL INDEX
       VSB = VISIBILITY
       HX  = HEAT INDEX
$$


USA.gov is the U.S. government's official web portal to all federal, state and local government web resources and services.